Погода в Лопанке

Россия / Ростовская область     46°23′58″N   40°58′30″E
темп.,
°C
ветер,
м/с
пор.,
м/с
влажн.,
%
обл.,
%
осадки,
мм/ч
давл.,
гПа
погр.,
м
6 мая, чт
чт600:00+9в45630 0.0 101773
03:00+8в47695 0.0 1016108
06:00+8вюв4107870 0.0 1016209
09:00+15вюв71157100 0.0 1015936
12:00+18юв7949100 0.0 10141396
15:00+19юв6748100 0.0 10131536
18:00+17вюв3666100 0.0 1013179
21:00+13юв3771100 0.0 1013115
7 мая, пт
пт700:00+12ююв3772100 0.0 1013112
03:00+10ю228121 0.0 101420
06:00+11юз228698 0.0 101535
09:00+16з3469100 0.0 1016493
12:00+19зюз44445 0.0 10161228
15:00+20з44425 0.0 10161627
18:00+19з225831 0.0 101670
21:00+14ююз226615 0.0 101712
8 мая, сб
сб800:00+13юз2280100 0.0 101711
03:00+13ю227931 0.0 101612
06:00+12ююв238051 0.0 101655
09:00+18ююв3464100 0.0 1016477
12:00+22ююв4554100 0.0 10141191
15:00+23ююв5651100 0.0 10131790
18:00+21ююв356794 0.0 1012142
21:00+16ююв347899 0.0 101146
9 мая, вс
вс900:00+15ююв3673100 0.0 1010112
03:00+14юв3776100 0.0 1008132
06:00+14ю2483100 0.1 1009138
09:00+15ююз2787100 0.6 1008429
12:00+18юз10157139 1.1 10071425
15:00+9з101485100 1.3 1011831
18:00+4зсз101594100 0.1 10171078
21:00+7зсз11167939 0.4 10191077
10 мая, пн
пн1000:00+6зюз7148575 0.0 1019690
03:00+7зюз8138797 0.3 1018666
06:00+7зюз6118994 0.2 1018970
09:00+8зюз81283100 0.3 10171161
12:00+8зюз7108298 0.3 1017993
15:00+9юз897795 0.6 10181152
18:00+8юз5887100 0.3 1017706
21:00+7ююз3792100 0.6 1019446